Location: Babice
(50.3480°N, 22.9363°E)
Time: 12:41:18
(UTC+00:00)

Cosmos 1544 - Pass Details

Date: 14 July 2020
Orbit: 473 x 490 km, 82.5° (Epoch: 08 August)

Event Time Altitude Azimuth Distance (km) Brightness Sun altitude
Exits shadow 01:25:40 - 169° (SSE) 2,446 6.3 -8.7°
Reaches altitude 10° 01:27:40 10° 161° (SSE) 1,638 5.4 -8.5°
Maximum altitude 01:30:59 37° 93° (E) 762 4.4 -8.1°
Drops below altitude 10° 01:34:19 10° 25° (NNE) 1,653 7.2 -7.8°
Sets 01:36:31 0° 17° (NNE) 2,538 8.1 -7.6°
